Location: Kielce
(50.8833°N, 20.6167°E)
Time: 21:50:47
(UTC+02:00)

SR - Pass Details

Date: 25 April 2021
Orbit: 573 x 882 km, 66.7° (Epoch: 09 May)

Event Time Altitude Azimuth Distance (km) Brightness Sun altitude
Rises 09:33:36 0° 270° (W) 3,431 ? 37.5°
Reaches altitude 10° 09:36:34 10° 284° (WNW) 2,523 ? 37.9°
Maximum altitude 09:41:14 24° 336° (NNW) 1,769 ? 38.6°
Drops below altitude 10° 09:45:56 10° 29° (NNE) 2,544 ? 39.2°
Sets 09:48:58 0° 43° (NE) 3,468 ? 39.6°
